Historyczne dane pomiarowe

Dodano dane terminowe – wersja testowa.

Dane z okresu 1951-2019

Wersja bazy: 1.34 [2019-03-16, lista zmian], aktualizacja planowana na 2019-04-15

Dane meteo z obszaru Polski uzyskane na podstawie danych udostępnionych przez Instytut Meteorologii i Gospodarki Wodnej – Państwowy Instytut Badawczy.

 

Wybierz Datę:    

       

TemperaturaWilgotnośćWiatrCiśnienieOpadyŚniegCzas trwania zjawisk
 Stacja t tx tn tng RH VA  wxwx mslp ppp RRR   cm mm wxwxwxwxwxwxwx
2019-07-25 21.1 28.9 11.1 10.8 68.8- 2.3 0.7---- 0.0------------
2019-07-24 18.2 25.3 9.6 10.3 80.5- 4.3 0.7---- 0.0------------
2019-07-23 17.8 22.8 12.1 8.8 74.5- 6.3 1.3---- 0.0------------
2019-07-22 19.6 26.8 11.6 9.8 67.8- 4.7 3.3---- 0.0------------
2019-07-21 20.1 29.3 10.6 11.3 72.3- 6.0 2.0---- 2.7------------
2019-07-20 21.0 26.3 17.1 14.7 82.5- 6.0 0.0---- 3.5------------
2019-07-19 20.2 27.3 15.1 6.4 72.0- 3.3 0.7---- 0.0------------
2019-07-18 15.9 23.6 6.7 6.9 79.0- 3.3 1.0---- 0.0------------
2019-07-17 15.7 20.0 11.8 10.1 87.3- 7.3 3.7---- 2.7------------
2019-07-16 15.8 24.8 7.7 7.4 71.3- 7.3 3.7---- 1.5------------
2019-07-15 16.0 24.3 5.4 5.5 65.0- 2.0 1.3---- 0.0------------
2019-07-14 16.3 22.9 8.6 8.2 73.5- 5.3 0.3---- 0.0------------
2019-07-13 16.9 23.8 10.3 9.6 77.5- 8.0 0.7---- 0.5------------
2019-07-12 16.2 23.8 6.3 6.4 66.8- 5.3 1.3---- 0.0------------
2019-07-11 13.9 19.5 5.9 5.3 77.0- 7.3 3.0---- 0.2------------
2019-07-10 14.6 18.2 11.8 9.1 83.0- 7.3 4.3---- 0.1------------
2019-07-09 13.3 18.9 7.4 6.5 82.5- 6.7 6.0---- 4.5------------
2019-07-08 14.7 19.4 10.8 9.1 79.3- 7.7 5.7---- 0.0------------
2019-07-07 16.8 20.9 12.3 11.1 78.5- 6.7 4.3---- 0.0------------
2019-07-06 15.9 20.9 9.3 8.2 66.3- 6.7 2.7---- 0.3------------
2019-07-05 15.8 22.4 8.8 8.2 66.0- 6.3 4.3---- 0.0------------
2019-07-04 15.7 21.7 8.7 5.9 54.5- 3.0 3.7---- 0.0------------
2019-07-03 17.1 27.8 9.3 7.9 67.5- 5.7 4.0---- 0.0------------
2019-07-02 20.2 26.8 14.7 13.4 67.3- 4.0 3.3---- 0.0------------
2019-07-01 25.4 33.8 17.7 17.6 71.5- 4.3 3.3---- 0.0------------
2019-06-30 23.9 33.0 11.6 11.3 73.0- 1.0 2.3---- 0.0------------
2019-06-29 17.6 25.3 6.5 7.4 81.8- 4.3 3.3---- 0.0------------
2019-06-28 16.8 22.4 9.6 11.3 79.8- 2.3 2.3---- 0.0------------
2019-06-27 21.9 31.7 15.6 18.2 81.3- 2.7 6.0---- 0.0------------
2019-06-26 24.5 33.3 9.6 16.7 74.5- 2.0 1.3---- 0.0------------
2019-06-25 21.9 28.8 9.6 11.3 71.3- 1.0 1.3---- 0.0------------
2019-06-24 20.3 27.0 9.6 9.8 79.0- 1.0 1.3---- 0.0------------
2019-06-23 19.3 25.3 10.1 10.8 74.0- 3.3 0.7---- 0.0------------
2019-06-22 20.3 26.5 14.6 15.9 76.5- 3.0 0.3---- 0.0------------
2019-06-21 20.3 26.6 13.9 16.2 91.8- 8.0 0.3---- 1.0------------
2019-06-20 21.8 28.3 13.8 14.7 83.5- 6.3 0.3---- 13.2------------
2019-06-19 20.3 27.6 12.1 13.7 79.5- 6.3 2.7---- 0.0------------
2019-06-18 19.7 26.0 11.4 10.8 72.8- 5.7 0.3---- 0.0------------
2019-06-17 18.9 25.0 12.6 14.1 79.3- 7.0 1.3---- 0.0------------
2019-06-16 21.3 27.8 13.8 18.2 82.8- 6.3 2.7---- 0.0------------
2019-06-15 23.8 31.3 14.0 16.7 72.0- 2.7 1.7---- 0.0------------
2019-06-14 21.6 28.5 13.6 10.8 86.8- 2.0 0.3---- 0.0------------
2019-06-13 25.2 31.8 17.1 16.2 60.3- 1.3 3.0---- 11.8------------
2019-06-12 25.5 33.3 16.1 15.7 58.3- 1.0 1.7---- 0.0------------
2019-06-11 24.6 30.3 16.1 8.8 61.5- 1.7 2.7---- 0.0------------
2019-06-10 20.8 27.9 9.2 8.8 63.8- 1.3 3.7---- 0.0------------
2019-06-09 20.2 28.3 13.1 12.8 65.8- 1.3 0.7---- 0.0------------
2019-06-08 21.4 28.1 13.1 13.8 75.8- 4.3 1.7---- 0.4------------
2019-06-07 19.9 26.3 12.1 11.3 78.5- 2.7 1.0---- 0.0------------
2019-06-06 20.5 25.8 13.1 13.1 72.3- 4.3 3.0---- 0.0------------
2019-06-05 21.1 27.8 12.1 11.3 69.3- 1.0 2.7---- 0.0------------
2019-06-04 20.5 27.8 11.1 10.8 68.0- 1.7 2.3---- 0.0------------
2019-06-03 18.1 24.8 9.1 8.3 67.8- 1.3 1.3---- 0.0------------
2019-06-02 18.5 24.8 9.6 8.3 85.3- 5.7 0.0---- 2.9------------
2019-06-01 17.9 22.9 9.6 8.8 79.8- 3.7 0.0---- 0.0------------
2019-05-31 15.5 21.5 7.7 7.4 58.5- 1.7 0.3---- 0.0------------
2019-05-30 13.1 21.5 4.3 3.9 78.5- 3.0 0.3---- 0.0------------
2019-05-29 14.0 16.5 11.6 10.8 87.5- 8.0 1.0---- 0.8------------
2019-05-28 17.8 24.3 13.6 12.8 90.3- 8.0 1.7---- 22.6------------
2019-05-27 17.8 24.4 11.1 9.3 82.3- 5.7 1.3---- 1.6------------
72.4 ms

 

Źródłem pochodzenia danych jest Instytut Meteorologii i Gospodarki Wodnej – Państwowy Instytut Badawczy. Dane Instytutu Meteorologii i Gospodarki Wodnej – Państwowego Instytutu Badawczego zostały przetworzone.

Dane źródłowe można odnaleźć na stronie https://dane.imgw.pl